sat.trackr.live / text

‹ back to catalog

STARLINK-35503

NORAD 66245 · 2025-245M

PAYLOAD ACTIVE UNKNOWN

§ Identity

Operator
Country
US
Launch date
2025-10-29
Launch site
AFETR
Launch vehicle
Mass (kg)
RCS (m²)

Purposes: comms

External: N2YO · Heavens-Above · Gunter

§ Orbital elements

Epoch: 2026-09-20T20:07:54.835968Z

Period
93.85 min
Inclination
53.1587°
Eccentricity
0.0002244
Mean motion
15.34410561 rev/d
Perigee alt
461.1 km
Apogee alt
464.2 km
Semi-major
6,840.8 km
B*
4.8119e-4
RAAN
96.1040°
Arg perigee
85.8279°
Mean anomaly
274.2980°
Rev number
5,110

§ Raw data

STARLINK-355031 66245U 25245M   26263.83882912  .00015922  00000+0  48119-3 0  99952 66245  53.1587  96.1040 0002244  85.8279 274.2980 15.34410561 51104

JSON: /api/v1/satellites/66245 · /tle

For live sub-satellite position, see the globe view (requires WebGL).

§ Visibility from observer

Set your observer location to see the next 7 days of passes ≥ 10°. The values pass through the URL so the page stays shareable.

No JS? Fill the form by hand. The geolocation button needs JavaScript.